Location: Chrome
(40.5765°N, 74.2163°W)
Time: 05:08:34
(UTC+00:00)

Cosmos 1666 - Pass Details

Date: 06 December 2019
Orbit: 498 x 521 km, 82.5° (Epoch: 28 January)

Event Time Altitude Azimuth Distance (km) Brightness Sun altitude
Rises 22:50:23 0° 1° (N) 2,608 6.1 -14.9°
Reaches altitude 10° 22:52:39 10° 10° (N) 1,716 5.1 -15.3°
Maximum altitude 22:56:07 35° 78° (ENE) 818 3.1 -15.9°
Drops below altitude 10° 22:59:34 10° 146° (SE) 1,697 5.1 -16.5°
Sets 23:01:47 0° 155° (SSE) 2,574 6.1 -17.0°
